Precipitable_Water
0.65 0.65 0.66 0.67 0.67 0.67 0.68 0.69 0.68 0.66 0.61 0.56 0.60 0.68 0.73 0.72 0.70 0.66 0.65 0.65 0.61 0.56 0.52 0.51 0.52 0.53 0.52 0.51 0.52 0.53 0.52 0.44 0.41 0.48 0.52 0.53 0.46 0.44 0.40 0.38 0.29 0.23 0.23 0.25 0.29 0.27 0.25 0.30 0.26 0.26 0.22 0.24 0.22 0.22 0.27 0.24 0.25 0.23 0.18 0.18 0.19 0.18 0.17 0.11 0.13 0.13 0.24 0.24 0.26 0.28 0.25 0.32 0.46 0.57 0.62 0.62 0.61 0.72 0.70 0.69 0.69 0.81 0.85 0.96 1.02 1.03 1.06 1.24
0.63 0.65 0.66 0.67 0.67 0.68 0.68 0.68 0.67 0.63 0.57 0.57 0.63 0.70 0.72 0.72 0.68 0.65 0.66 0.64 0.59 0.56 0.52 0.52 0.52 0.53 0.53 0.53 0.52 0.54 0.50 0.45 0.48 0.53 0.54 0.41 0.36 0.33 0.33 0.31 0.25 0.20 0.25 0.29 0.34 0.29 0.25 0.25 0.24 0.25 0.21 0.20 0.23 0.21 0.26 0.25 0.23 0.20 0.16 0.18 0.18 0.19 0.19 0.15 0.17 0.25 0.22 0.27 0.27 0.24 0.23 0.36 0.56 0.54 0.56 0.55 0.56 0.56 0.56 0.59 0.66 0.67 0.79 0.96 1.02 1.00 1.01 1.10
0.63 0.65 0.66 0.67 0.67 0.67 0.67 0.67 0.65 0.59 0.57 0.61 0.67 0.71 0.72 0.69 0.68 0.66 0.66 0.63 0.58 0.55 0.52 0.52 0.52 0.53 0.53 0.55 0.58 0.63 0.64 0.61 0.61 0.56 0.42 0.39 0.35 0.34 0.33 0.29 0.24 0.22 0.28 0.38 0.38 0.29 0.28 0.26 0.27 0.24 0.21 0.22 0.19 0.19 0.21 0.23 0.18 0.19 0.17 0.17 0.18 0.22 0.22 0.23 0.25 0.29 0.30 0.29 0.25 0.25 0.21 0.30 0.45 0.52 0.49 0.51 0.53 0.54 0.53 0.54 0.65 0.61 0.63 0.75 0.85 0.93 0.98 1.02
0.63 0.64 0.65 0.66 0.65 0.65 0.66 0.66 0.60 0.57 0.61 0.67 0.70 0.72 0.70 0.68 0.67 0.66 0.65 0.64 0.59 0.55 0.54 0.52 0.53 0.55 0.56 0.59 0.64 0.70 0.67 0.60 0.45 0.36 0.37 0.38 0.36 0.34 0.33 0.29 0.27 0.31 0.39 0.42 0.43 0.33 0.33 0.31 0.27 0.22 0.21 0.23 0.22 0.20 0.21 0.19 0.14 0.16 0.17 0.16 0.19 0.24 0.22 0.24 0.26 0.27 0.29 0.28 0.24 0.22 0.23 0.24 0.37 0.51 0.45 0.43 0.45 0.50 0.52 0.61 0.67 0.75 0.72 0.78 0.84 0.86 0.95 0.98
0.63 0.64 0.65 0.65 0.64 0.65 0.65 0.62 0.59 0.62 0.66 0.70 0.70 0.70 0.68 0.66 0.66 0.65 0.66 0.64 0.61 0.57 0.55 0.54 0.54 0.58 0.64 0.70 0.73 0.76 0.69 0.54 0.38 0.40 0.40 0.40 0.37 0.35 0.32 0.32 0.32 0.36 0.40 0.41 0.42 0.35 0.33 0.31 0.27 0.23 0.22 0.23 0.25 0.20 0.20 0.20 0.20 0.17 0.14 0.20 0.22 0.25 0.23 0.25 0.25 0.26 0.28 0.26 0.24 0.20 0.21 0.24 0.39 0.47 0.48 0.43 0.48 0.48 0.55 0.62 0.68 0.72 0.81 0.78 0.83 0.84 0.93 0.81
0.63 0.64 0.64 0.63 0.64 0.65 0.63 0.61 0.64 0.67 0.70 0.71 0.70 0.67 0.66 0.65 0.64 0.65 0.65 0.65 0.62 0.59 0.58 0.57 0.60 0.66 0.67 0.70 0.75 0.74 0.65 0.27 0.42 0.42 0.44 0.41 0.40 0.37 0.34 0.32 0.38 0.39 0.40 0.41 0.40 0.32 0.31 0.30 0.27 0.22 0.22 0.23 0.25 0.22 0.20 0.20 0.22 0.16 0.18 0.21 0.21 0.24 0.24 0.25 0.28 0.26 0.25 0.25 0.22 0.22 0.21 0.25 0.30 0.34 0.44 0.47 0.57 0.59 0.66 0.67 0.69 0.72 0.76 0.72 0.83 0.79 0.73 0.77
0.62 0.62 0.62 0.63 0.64 0.63 0.63 0.65 0.68 0.69 0.70 0.69 0.67 0.66 0.65 0.64 0.64 0.64 0.64 0.63 0.64 0.62 0.62 0.60 0.65 0.67 0.68 0.70 0.75 0.73 0.60 0.51 0.54 0.54 0.42 0.44 0.39 0.37 0.34 0.33 0.33 0.35 0.36 0.34 0.31 0.27 0.27 0.27 0.25 0.21 0.22 0.21 0.23 0.21 0.19 0.16 0.20 0.18 0.17 0.18 0.19 0.21 0.23 0.26 0.28 0.28 0.25 0.21 0.20 0.23 0.21 0.22 0.25 0.27 0.34 0.42 0.60 0.61 0.70 0.70 0.68 0.76 0.71 0.78 0.65 0.78 0.80 0.86
0.60 0.60 0.60 0.62 0.64 0.65 0.66 0.68 0.69 0.69 0.68 0.67 0.66 0.65 0.67 0.65 0.63 0.63 0.62 0.63 0.67 0.67 0.64 0.65 0.66 0.67 0.68 0.67 0.64 0.62 0.50 0.48 0.51 0.49 0.42 0.44 0.40 0.33 0.37 0.36 0.36 0.36 0.35 0.32 0.27 0.25 0.25 0.24 0.21 0.24 0.20 0.20 0.19 0.17 0.18 0.17 0.18 0.16 0.16 0.20 0.19 0.17 0.18 0.22 0.24 0.24 0.24 0.21 0.21 0.21 0.19 0.22 0.22 0.25 0.30 0.36 0.49 0.55 0.51 0.62 0.76 0.74 0.72 0.76 0.85 0.77 0.86 0.89
0.59 0.60 0.61 0.65 0.67 0.68 0.67 0.67 0.68 0.67 0.67 0.66 0.67 0.69 0.67 0.66 0.61 0.60 0.61 0.67 0.70 0.69 0.69 0.68 0.69 0.69 0.72 0.63 0.54 0.46 0.39 0.53 0.66 0.48 0.44 0.38 0.38 0.38 0.43 0.40 0.42 0.38 0.37 0.33 0.26 0.24 0.23 0.22 0.21 0.22 0.18 0.18 0.20 0.18 0.21 0.19 0.16 0.16 0.15 0.19 0.21 0.19 0.18 0.19 0.22 0.23 0.24 0.22 0.21 0.20 0.19 0.21 0.23 0.25 0.25 0.25 0.34 0.43 0.43 0.48 0.50 0.57 0.63 0.79 0.77 0.78 0.97 0.85
0.60 0.62 0.65 0.66 0.67 0.66 0.67 0.67 0.67 0.68 0.68 0.69 0.67 0.67 0.66 0.62 0.61 0.60 0.64 0.67 0.70 0.70 0.69 0.69 0.68 0.67 0.68 0.68 0.61 0.40 0.41 0.62 0.65 0.61 0.44 0.42 0.44 0.44 0.44 0.43 0.42 0.34 0.29 0.28 0.28 0.27 0.28 0.27 0.23 0.25 0.22 0.21 0.20 0.18 0.19 0.16 0.17 0.18 0.15 0.16 0.18 0.20 0.20 0.20 0.19 0.22 0.23 0.20 0.21 0.19 0.18 0.20 0.22 0.21 0.22 0.31 0.35 0.42 0.40 0.44 0.48 0.47 0.55 0.70 0.75 0.79 0.88 0.82
0.61 0.65 0.66 0.67 0.67 0.68 0.70 0.70 0.71 0.70 0.69 0.68 0.65 0.63 0.63 0.61 0.62 0.64 0.66 0.68 0.68 0.69 0.68 0.67 0.70 0.65 0.56 0.60 0.47 0.31 0.48 0.56 0.62 0.56 0.42 0.46 0.48 0.49 0.45 0.43 0.38 0.33 0.29 0.25 0.27 0.31 0.30 0.28 0.27 0.24 0.21 0.22 0.20 0.18 0.18 0.19 0.20 0.21 0.19 0.19 0.18 0.17 0.19 0.20 0.22 0.21 0.22 0.21 0.21 0.19 0.19 0.19 0.21 0.20 0.21 0.27 0.29 0.37 0.37 0.41 0.46 0.42 0.48 0.65 0.72 0.75 0.79 0.84
0.62 0.66 0.67 0.69 0.71 0.72 0.71 0.70 0.70 0.69 0.69 0.67 0.65 0.62 0.61 0.63 0.65 0.67 0.67 0.66 0.67 0.65 0.67 0.68 0.68 0.66 0.61 0.53 0.31 0.36 0.52 0.53 0.59 0.49 0.47 0.46 0.49 0.51 0.42 0.38 0.40 0.37 0.30 0.27 0.27 0.29 0.30 0.28 0.25 0.26 0.23 0.23 0.18 0.18 0.18 0.19 0.18 0.18 0.19 0.16 0.16 0.16 0.14 0.17 0.19 0.19 0.21 0.20 0.21 0.20 0.18 0.17 0.18 0.17 0.21 0.26 0.29 0.36 0.36 0.35 0.42 0.41 0.45 0.60 0.72 0.79 0.76 0.84
0.63 0.66 0.67 0.69 0.70 0.69 0.68 0.68 0.69 0.69 0.68 0.67 0.65 0.64 0.63 0.65 0.66 0.67 0.66 0.64 0.64 0.66 0.67 0.70 0.71 0.72 0.59 0.29 0.34 0.46 0.54 0.56 0.53 0.51 0.47 0.54 0.43 0.41 0.41 0.41 0.40 0.35 0.33 0.32 0.29 0.28 0.29 0.27 0.27 0.25 0.26 0.22 0.21 0.18 0.21 0.18 0.17 0.16 0.16 0.15 0.14 0.15 0.14 0.15 0.17 0.18 0.18 0.20 0.20 0.19 0.13 0.15 0.17 0.18 0.21 0.26 0.32 0.37 0.35 0.33 0.35 0.40 0.42 0.52 0.68 0.65 0.72 0.80
0.63 0.66 0.67 0.68 0.68 0.67 0.66 0.66 0.66 0.67 0.68 0.69 0.66 0.65 0.64 0.64 0.64 0.64 0.63 0.62 0.61 0.61 0.63 0.63 0.65 0.63 0.53 0.27 0.35 0.44 0.47 0.47 0.45 0.48 0.48 0.45 0.39 0.35 0.35 0.36 0.33 0.31 0.32 0.30 0.29 0.29 0.26 0.29 0.26 0.24 0.24 0.21 0.21 0.24 0.19 0.20 0.18 0.14 0.16 0.16 0.13 0.13 0.14 0.17 0.18 0.20 0.18 0.22 0.20 0.19 0.14 0.16 0.19 0.19 0.23 0.24 0.29 0.36 0.35 0.32 0.33 0.38 0.43 0.46 0.66 0.70 0.74 0.71
0.62 0.65 0.66 0.67 0.67 0.67 0.66 0.64 0.63 0.65 0.67 0.69 0.68 0.67 0.68 0.65 0.64 0.63 0.63 0.62 0.63 0.66 0.69 0.78 0.75 0.62 0.41 0.28 0.32 0.36 0.40 0.42 0.42 0.42 0.43 0.41 0.36 0.32 0.34 0.32 0.32 0.31 0.30 0.29 0.29 0.30 0.29 0.27 0.26 0.24 0.23 0.25 0.22 0.18 0.17 0.18 0.18 0.18 0.14 0.14 0.15 0.12 0.14 0.18 0.20 0.22 0.18 0.19 0.20 0.18 0.14 0.16 0.19 0.24 0.26 0.29 0.29 0.34 0.32 0.31 0.32 0.33 0.38 0.43 0.60 0.71 0.68 0.66
0.61 0.64 0.65 0.66 0.66 0.66 0.64 0.62 0.63 0.64 0.67 0.68 0.70 0.70 0.70 0.68 0.64 0.63 0.63 0.61 0.65 0.72 0.75 0.74 0.75 0.59 0.36 0.26 0.32 0.42 0.41 0.38 0.34 0.38 0.39 0.40 0.34 0.30 0.30 0.30 0.30 0.30 0.29 0.30 0.29 0.30 0.29 0.28 0.24 0.24 0.25 0.24 0.20 0.19 0.18 0.18 0.19 0.19 0.16 0.15 0.15 0.15 0.14 0.15 0.19 0.23 0.20 0.18 0.20 0.19 0.16 0.17 0.19 0.24 0.28 0.28 0.28 0.32 0.32 0.31 0.32 0.33 0.36 0.40 0.56 0.66 0.67 0.67
0.59 0.62 0.64 0.65 0.66 0.65 0.64 0.63 0.64 0.65 0.66 0.68 0.68 0.68 0.70 0.68 0.66 0.65 0.66 0.66 0.66 0.70 0.67 0.62 0.62 0.68 0.30 0.37 0.48 0.41 0.33 0.29 0.32 0.33 0.33 0.36 0.34 0.32 0.28 0.30 0.31 0.31 0.32 0.31 0.31 0.31 0.30 0.27 0.27 0.27 0.28 0.24 0.22 0.21 0.19 0.20 0.21 0.21 0.21 0.18 0.17 0.16 0.18 0.15 0.21 0.23 0.22 0.20 0.17 0.20 0.18 0.18 0.21 0.25 0.24 0.29 0.32 0.32 0.31 0.31 0.33 0.34 0.37 0.38 0.47 0.65 0.66 0.65
0.58 0.62 0.64 0.65 0.64 0.64 0.63 0.64 0.66 0.67 0.68 0.67 0.67 0.66 0.65 0.71 0.76 0.73 0.71 0.72 0.71 0.75 0.76 0.74 0.65 0.52 0.31 0.44 0.36 0.27 0.31 0.34 0.35 0.34 0.35 0.35 0.34 0.33 0.34 0.31 0.32 0.32 0.32 0.30 0.32 0.30 0.30 0.29 0.31 0.26 0.26 0.27 0.29 0.27 0.24 0.21 0.25 0.25 0.25 0.24 0.22 0.18 0.18 0.16 0.18 0.21 0.20 0.19 0.17 0.18 0.18 0.17 0.20 0.23 0.25 0.29 0.29 0.29 0.29 0.31 0.32 0.33 0.36 0.37 0.41 0.52 0.72 0.67
0.59 0.62 0.65 0.62 0.62 0.63 0.64 0.65 0.68 0.70 0.72 0.72 0.72 0.76 0.79 0.75 0.74 0.71 0.61 0.69 0.62 0.65 0.59 0.41 0.57 0.31 0.25 0.29 0.34 0.36 0.36 0.35 0.40 0.38 0.34 0.34 0.36 0.38 0.37 0.35 0.34 0.31 0.29 0.29 0.28 0.31 0.29 0.27 0.29 0.31 0.33 0.38 0.31 0.33 0.30 0.29 0.29 0.27 0.27 0.26 0.25 0.24 0.21 0.18 0.18 0.19 0.19 0.18 0.18 0.17 0.16 0.17 0.17 0.19 0.23 0.24 0.28 0.26 0.27 0.29 0.30 0.32 0.34 0.37 0.39 0.46 0.69 0.66
0.60 0.62 0.63 0.62 0.61 0.64 0.64 0.66 0.69 0.72 0.75 0.76 0.81 0.83 0.76 0.65 0.59 0.51 0.59 0.60 0.53 0.39 0.38 0.35 0.35 0.32 0.33 0.33 0.33 0.35 0.42 0.45 0.36 0.35 0.39 0.41 0.38 0.36 0.36 0.37 0.34 0.35 0.33 0.30 0.32 0.30 0.28 0.23 0.27 0.33 0.38 0.35 0.35 0.32 0.30 0.28 0.26 0.24 0.23 0.23 0.23 0.23 0.23 0.22 0.22 0.20 0.20 0.18 0.17 0.17 0.16 0.16 0.17 0.18 0.20 0.23 0.24 0.27 0.29 0.28 0.29 0.30 0.32 0.34 0.39 0.47 0.65 0.69
0.59 0.61 0.61 0.61 0.62 0.64 0.65 0.65 0.68 0.72 0.77 0.82 0.85 0.81 0.57 0.57 0.52 0.38 0.41 0.41 0.41 0.42 0.35 0.32 0.37 0.36 0.33 0.32 0.35 0.36 0.35 0.38 0.39 0.33 0.36 0.44 0.41 0.39 0.36 0.34 0.32 0.31 0.33 0.31 0.27 0.27 0.28 0.26 0.29 0.40 0.38 0.35 0.35 0.32 0.29 0.26 0.26 0.24 0.23 0.21 0.19 0.18 0.17 0.20 0.19 0.20 0.21 0.20 0.18 0.19 0.18 0.16 0.17 0.17 0.18 0.21 0.22 0.25 0.30 0.31 0.31 0.32 0.35 0.41 0.43 0.51 0.55 0.75
0.57 0.59 0.61 0.60 0.60 0.64 0.64 0.63 0.66 0.71 0.79 0.83 0.79 0.69 0.58 0.61 0.66 0.74 0.63 0.38 0.43 0.46 0.45 0.39 0.38 0.36 0.42 0.44 0.45 0.45 0.44 0.37 0.35 0.37 0.36 0.40 0.40 0.37 0.30 0.29 0.31 0.26 0.30 0.29 0.30 0.28 0.28 0.29 0.37 0.38 0.39 0.36 0.32 0.29 0.30 0.30 0.30 0.31 0.27 0.27 0.22 0.18 0.18 0.18 0.18 0.19 0.22 0.20 0.19 0.21 0.19 0.18 0.18 0.19 0.20 0.20 0.25 0.28 0.32 0.40 0.47 0.49 0.51 0.54 0.52 0.57 0.81 0.92
0.57 0.57 0.60 0.60 0.59 0.62 0.63 0.63 0.64 0.69 0.74 0.77 0.77 0.61 0.55 0.70 0.81 0.78 0.77 0.50 0.36 0.46 0.41 0.41 0.38 0.37 0.37 0.43 0.43 0.46 0.40 0.38 0.35 0.40 0.39 0.41 0.38 0.33 0.29 0.28 0.30 0.28 0.33 0.30 0.25 0.26 0.24 0.33 0.38 0.39 0.37 0.34 0.32 0.34 0.35 0.35 0.34 0.34 0.33 0.29 0.24 0.29 0.30 0.25 0.22 0.18 0.18 0.18 0.21 0.23 0.21 0.20 0.19 0.19 0.19 0.29 0.33 0.38 0.41 0.52 0.53 0.58 0.60 0.58 0.62 0.67 0.69 0.76
0.56 0.57 0.57 0.58 0.60 0.60 0.62 0.62 0.66 0.66 0.69 0.75 0.59 0.58 0.69 0.79 0.79 0.80 0.64 0.51 0.35 0.38 0.41 0.39 0.42 0.38 0.37 0.40 0.42 0.44 0.34 0.34 0.42 0.37 0.44 0.39 0.36 0.35 0.36 0.33 0.30 0.32 0.32 0.32 0.28 0.22 0.24 0.31 0.40 0.37 0.36 0.36 0.34 0.35 0.35 0.35 0.32 0.38 0.40 0.37 0.35 0.33 0.33 0.28 0.26 0.26 0.21 0.21 0.22 0.21 0.21 0.22 0.21 0.19 0.23 0.28 0.40 0.45 0.53 0.61 0.62 0.63 0.62 0.66 0.66 0.72 0.79 0.76
0.57 0.56 0.57 0.58 0.58 0.62 0.61 0.65 0.60 0.63 0.62 0.74 0.61 0.62 0.77 0.83 0.84 0.78 0.61 0.48 0.41 0.44 0.44 0.46 0.48 0.42 0.40 0.49 0.48 0.42 0.36 0.38 0.41 0.41 0.43 0.38 0.34 0.36 0.33 0.33 0.32 0.31 0.32 0.33 0.28 0.30 0.32 0.39 0.41 0.38 0.38 0.38 0.37 0.36 0.40 0.36 0.36 0.44 0.44 0.40 0.41 0.40 0.36 0.37 0.33 0.29 0.22 0.20 0.24 0.26 0.20 0.20 0.23 0.23 0.30 0.34 0.49 0.48 0.57 0.57 0.57 0.60 0.62 0.65 0.66 0.67 0.74 0.81
0.57 0.56 0.56 0.58 0.61 0.63 0.68 0.64 0.55 0.59 0.58 0.65 0.70 0.64 0.79 0.81 0.87 0.87 0.66 0.50 0.34 0.38 0.49 0.38 0.58 0.42 0.64 0.47 0.49 0.47 0.37 0.37 0.46 0.46 0.45 0.44 0.44 0.42 0.42 0.40 0.39 0.29 0.33 0.33 0.29 0.30 0.31 0.37 0.39 0.36 0.35 0.34 0.33 0.34 0.43 0.41 0.38 0.36 0.42 0.47 0.44 0.43 0.39 0.38 0.38 0.34 0.28 0.27 0.40 0.35 0.23 0.22 0.35 0.37 0.41 0.43 0.48 0.52 0.58 0.57 0.57 0.59 0.62 0.63 0.63 0.67 0.73 0.77
0.56 0.56 0.57 0.58 0.62 0.65 0.61 0.59 0.60 0.71 0.64 0.62 0.69 0.72 0.80 0.83 0.87 0.82 0.57 0.38 0.26 0.33 0.40 0.41 0.49 0.40 0.49 0.40 0.46 0.51 0.38 0.36 0.44 0.51 0.48 0.48 0.39 0.42 0.36 0.39 0.42 0.43 0.40 0.37 0.35 0.37 0.41 0.38 0.36 0.35 0.32 0.29 0.28 0.32 0.34 0.30 0.26 0.25 0.40 0.37 0.38 0.39 0.38 0.39 0.38 0.35 0.32 0.34 0.33 0.33 0.29 0.23 0.32 0.40 0.49 0.54 0.49 0.52 0.52 0.55 0.57 0.62 0.62 0.61 0.65 0.69 0.72 0.78
0.56 0.56 0.57 0.59 0.59 0.61 0.55 0.64 0.64 0.73 0.68 0.75 0.74 0.74 0.79 0.91 0.83 0.80 0.63 0.28 0.21 0.44 0.40 0.38 0.39 0.45 0.50 0.44 0.46 0.39 0.36 0.39 0.40 0.48 0.48 0.46 0.47 0.40 0.39 0.37 0.33 0.33 0.33 0.32 0.29 0.38 0.35 0.30 0.30 0.28 0.28 0.27 0.25 0.25 0.24 0.25 0.25 0.26 0.35 0.39 0.35 0.35 0.37 0.37 0.36 0.36 0.36 0.35 0.29 0.28 0.33 0.23 0.37 0.45 0.51 0.53 0.48 0.50 0.53 0.55 0.58 0.61 0.62 0.62 0.63 0.65 0.69 0.74
0.55 0.56 0.57 0.59 0.60 0.60 0.65 0.58 0.66 0.66 0.68 0.75 0.69 0.75 0.85 0.84 0.76 0.64 0.44 0.24 0.24 0.35 0.63 0.44 0.55 0.48 0.45 0.47 0.44 0.37 0.43 0.39 0.33 0.38 0.44 0.48 0.47 0.43 0.33 0.33 0.32 0.32 0.36 0.37 0.34 0.38 0.39 0.32 0.33 0.30 0.27 0.23 0.24 0.25 0.28 0.29 0.26 0.33 0.35 0.35 0.33 0.33 0.35 0.32 0.32 0.35 0.36 0.32 0.27 0.29 0.35 0.31 0.34 0.42 0.45 0.51 0.50 0.53 0.54 0.57 0.60 0.64 0.64 0.65 0.67 0.67 0.67 0.74
0.56 0.55 0.59 0.61 0.67 0.72 0.70 0.66 0.61 0.69 0.71 0.72 0.75 0.76 0.80 0.77 0.69 0.50 0.35 0.21 0.42 0.34 0.41 0.37 0.45 0.37 0.39 0.45 0.45 0.42 0.38 0.39 0.42 0.39 0.47 0.45 0.47 0.51 0.42 0.43 0.38 0.37 0.35 0.41 0.40 0.40 0.38 0.45 0.39 0.35 0.28 0.28 0.26 0.27 0.34 0.31 0.29 0.34 0.36 0.38 0.39 0.39 0.35 0.36 0.34 0.33 0.31 0.25 0.27 0.31 0.34 0.36 0.31 0.43 0.49 0.47 0.48 0.57 0.60 0.63 0.66 0.64 0.64 0.66 0.69 0.69 0.70 0.71
0.55 0.57 0.59 0.66 0.68 0.79 0.80 0.74 0.75 0.76 0.72 0.74 0.75 0.68 0.67 0.67 0.49 0.36 0.22 0.31 0.51 0.45 0.45 0.41 0.38 0.37 0.41 0.38 0.40 0.39 0.42 0.42 0.41 0.37 0.36 0.42 0.50 0.49 0.36 0.40 0.38 0.34 0.39 0.36 0.35 0.34 0.33 0.37 0.36 0.35 0.33 0.30 0.31 0.29 0.33 0.35 0.36 0.36 0.34 0.35 0.34 0.34 0.43 0.37 0.35 0.34 0.24 0.23 0.29 0.36 0.38 0.38 0.29 0.43 0.54 0.57 0.62 0.63 0.61 0.59 0.62 0.63 0.64 0.68 0.69 0.69 0.72 0.74
0.61 0.63 0.67 0.68 0.72 0.76 0.72 0.71 0.80 0.78 0.73 0.69 0.69 0.62 0.67 0.45 0.50 0.33 0.26 0.46 0.25 0.37 0.39 0.41 0.38 0.29 0.30 0.38 0.37 0.31 0.33 0.40 0.35 0.38 0.25 0.32 0.42 0.42 0.38 0.26 0.22 0.20 0.30 0.29 0.27 0.29 0.31 0.33 0.34 0.34 0.32 0.29 0.28 0.25 0.32 0.37 0.38 0.40 0.38 0.35 0.28 0.28 0.28 0.24 0.30 0.23 0.24 0.22 0.35 0.36 0.36 0.32 0.34 0.47 0.58 0.61 0.62 0.62 0.65 0.64 0.64 0.64 0.65 0.67 0.69 0.73 0.73 0.74
0.67 0.70 0.72 0.72 0.72 0.68 0.80 0.78 0.71 0.73 0.72 0.69 0.58 0.64 0.53 0.36 0.23 0.37 0.31 0.33 0.38 0.37 0.35 0.35 0.31 0.36 0.34 0.35 0.44 0.37 0.36 0.34 0.31 0.41 0.31 0.43 0.37 0.44 0.40 0.34 0.29 0.26 0.18 0.27 0.29 0.25 0.28 0.33 0.31 0.30 0.28 0.31 0.32 0.23 0.22 0.32 0.36 0.38 0.33 0.32 0.27 0.24 0.25 0.21 0.28 0.29 0.27 0.33 0.39 0.35 0.38 0.31 0.45 0.55 0.65 0.62 0.65 0.67 0.68 0.71 0.71 0.70 0.69 0.70 0.73 0.75 0.76 0.77
0.71 0.71 0.65 0.74 0.67 0.66 0.70 0.68 0.77 0.72 0.68 0.69 0.56 0.61 0.48 0.26 0.24 0.32 0.22 0.37 0.32 0.36 0.36 0.31 0.34 0.35 0.36 0.33 0.27 0.27 0.32 0.41 0.31 0.25 0.34 0.38 0.41 0.32 0.34 0.34 0.29 0.24 0.24 0.28 0.27 0.25 0.21 0.25 0.28 0.25 0.23 0.31 0.31 0.30 0.31 0.33 0.36 0.36 0.41 0.35 0.34 0.28 0.25 0.23 0.26 0.26 0.27 0.29 0.36 0.39 0.31 0.35 0.37 0.42 0.66 0.70 0.69 0.68 0.68 0.70 0.70 0.71 0.72 0.74 0.76 0.77 0.77 0.79
0.69 0.68 0.68 0.76 0.73 0.71 0.69 0.70 0.71 0.67 0.57 0.57 0.63 0.54 0.37 0.35 0.42 0.42 0.41 0.38 0.36 0.37 0.39 0.31 0.31 0.34 0.44 0.41 0.31 0.33 0.26 0.28 0.35 0.27 0.38 0.34 0.28 0.34 0.27 0.31 0.30 0.28 0.27 0.25 0.26 0.28 0.25 0.23 0.31 0.30 0.29 0.32 0.29 0.32 0.36 0.35 0.36 0.37 0.41 0.39 0.29 0.25 0.31 0.25 0.30 0.31 0.30 0.27 0.26 0.33 0.34 0.46 0.44 0.63 0.68 0.72 0.68 0.66 0.67 0.67 0.67 0.67 0.70 0.73 0.73 0.75 0.77 0.77
0.67 0.68 0.76 0.71 0.83 0.84 0.75 0.72 0.72 0.62 0.50 0.52 0.50 0.38 0.36 0.41 0.40 0.40 0.44 0.47 0.38 0.31 0.35 0.36 0.36 0.35 0.39 0.39 0.40 0.29 0.33 0.25 0.31 0.35 0.42 0.39 0.33 0.35 0.34 0.35 0.30 0.29 0.24 0.21 0.27 0.22 0.26 0.28 0.32 0.26 0.33 0.33 0.34 0.36 0.34 0.38 0.27 0.33 0.35 0.27 0.33 0.36 0.33 0.30 0.30 0.32 0.29 0.26 0.27 0.36 0.38 0.45 0.57 0.62 0.62 0.60 0.59 0.58 0.59 0.59 0.62 0.64 0.66 0.69 0.70 0.74 0.76 0.78
0.70 0.84 0.76 0.83 0.89 0.69 0.68 0.59 0.61 0.55 0.52 0.51 0.43 0.38 0.39 0.40 0.42 0.41 0.40 0.34 0.28 0.27 0.40 0.42 0.41 0.32 0.35 0.32 0.38 0.29 0.31 0.36 0.41 0.31 0.37 0.40 0.41 0.39 0.32 0.36 0.37 0.32 0.26 0.25 0.32 0.33 0.24 0.26 0.35 0.29 0.27 0.32 0.34 0.36 0.40 0.37 0.38 0.38 0.30 0.34 0.44 0.47 0.38 0.28 0.24 0.26 0.27 0.23 0.28 0.35 0.34 0.37 0.38 0.33 0.57 0.56 0.54 0.55 0.55 0.55 0.58 0.64 0.65 0.64 0.68 0.71 0.75 0.79
0.77 0.81 0.66 0.63 0.61 0.61 0.61 0.66 0.59 0.53 0.52 0.46 0.40 0.36 0.42 0.39 0.44 0.38 0.38 0.41 0.39 0.44 0.39 0.41 0.36 0.29 0.34 0.34 0.34 0.24 0.25 0.28 0.32 0.33 0.33 0.39 0.36 0.47 0.38 0.28 0.36 0.32 0.28 0.31 0.28 0.30 0.31 0.27 0.31 0.33 0.28 0.31 0.34 0.32 0.37 0.36 0.36 0.34 0.35 0.50 0.31 0.27 0.27 0.32 0.29 0.20 0.19 0.21 0.24 0.32 0.39 0.36 0.40 0.36 0.46 0.46 0.43 0.45 0.48 0.50 0.51 0.56 0.61 0.63 0.67 0.70 0.74 0.78
0.72 0.73 0.66 0.67 0.68 0.58 0.61 0.57 0.54 0.59 0.56 0.46 0.40 0.29 0.33 0.37 0.40 0.35 0.34 0.39 0.34 0.38 0.41 0.38 0.36 0.28 0.31 0.30 0.27 0.36 0.24 0.25 0.30 0.33 0.22 0.40 0.30 0.45 0.36 0.32 0.28 0.28 0.31 0.31 0.34 0.34 0.31 0.27 0.31 0.33 0.29 0.33 0.35 0.30 0.22 0.23 0.34 0.37 0.36 0.37 0.40 0.41 0.34 0.30 0.30 0.26 0.28 0.25 0.23 0.30 0.35 0.34 0.42 0.43 0.46 0.44 0.44 0.45 0.47 0.49 0.50 0.54 0.59 0.62 0.64 0.69 0.73 0.76
0.65 0.66 0.62 0.74 0.66 0.52 0.67 0.61 0.63 0.62 0.54 0.45 0.43 0.40 0.42 0.37 0.34 0.34 0.34 0.39 0.40 0.41 0.40 0.40 0.30 0.38 0.38 0.30 0.26 0.24 0.26 0.35 0.29 0.37 0.29 0.37 0.35 0.45 0.39 0.33 0.22 0.28 0.30 0.39 0.36 0.34 0.31 0.37 0.26 0.31 0.33 0.34 0.28 0.30 0.23 0.26 0.22 0.24 0.29 0.29 0.31 0.34 0.41 0.41 0.37 0.28 0.24 0.25 0.26 0.25 0.24 0.35 0.43 0.50 0.47 0.46 0.46 0.48 0.50 0.51 0.54 0.57 0.59 0.62 0.63 0.65 0.69 0.73
0.76 0.68 0.63 0.70 0.53 0.57 0.67 0.64 0.59 0.56 0.57 0.48 0.44 0.39 0.39 0.35 0.37 0.32 0.32 0.39 0.43 0.36 0.38 0.37 0.37 0.37 0.35 0.40 0.38 0.30 0.29 0.39 0.31 0.37 0.26 0.34 0.29 0.29 0.37 0.29 0.27 0.29 0.39 0.41 0.37 0.34 0.30 0.31 0.28 0.32 0.27 0.28 0.29 0.32 0.27 0.30 0.32 0.26 0.27 0.27 0.28 0.31 0.27 0.29 0.28 0.37 0.30 0.32 0.26 0.20 0.22 0.36 0.46 0.52 0.50 0.48 0.48 0.51 0.54 0.55 0.55 0.59 0.62 0.63 0.64 0.65 0.67 0.69
0.67 0.56 0.57 0.66 0.55 0.55 0.65 0.52 0.50 0.48 0.42 0.36 0.36 0.37 0.32 0.34 0.35 0.34 0.37 0.37 0.35 0.38 0.34 0.43 0.35 0.39 0.34 0.38 0.32 0.35 0.27 0.38 0.27 0.36 0.31 0.28 0.29 0.27 0.28 0.30 0.30 0.38 0.37 0.38 0.36 0.42 0.32 0.35 0.35 0.31 0.30 0.26 0.30 0.38 0.38 0.35 0.34 0.34 0.31 0.29 0.31 0.34 0.34 0.31 0.22 0.25 0.28 0.33 0.31 0.29 0.28 0.37 0.55 0.55 0.52 0.51 0.52 0.54 0.56 0.57 0.56 0.60 0.61 0.63 0.64 0.66 0.68 0.70
0.57 0.57 0.70 0.73 0.53 0.62 0.56 0.47 0.36 0.45 0.43 0.38 0.33 0.31 0.38 0.33 0.31 0.31 0.40 0.37 0.42 0.35 0.41 0.35 0.30 0.41 0.38 0.29 0.32 0.37 0.30 0.37 0.22 0.31 0.30 0.32 0.31 0.29 0.28 0.35 0.36 0.43 0.43 0.43 0.50 0.42 0.43 0.37 0.28 0.32 0.36 0.37 0.40 0.44 0.44 0.38 0.35 0.28 0.29 0.32 0.32 0.30 0.34 0.34 0.33 0.36 0.30 0.34 0.28 0.24 0.24 0.35 0.53 0.56 0.54 0.54 0.54 0.54 0.56 0.57 0.57 0.59 0.60 0.62 0.63 0.65 0.66 0.67
0.65 0.60 0.56 0.45 0.55 0.64 0.52 0.34 0.32 0.35 0.32 0.37 0.38 0.33 0.41 0.39 0.43 0.38 0.36 0.35 0.44 0.41 0.41 0.41 0.41 0.37 0.36 0.32 0.35 0.30 0.29 0.32 0.33 0.29 0.31 0.33 0.31 0.32 0.31 0.35 0.47 0.40 0.32 0.38 0.39 0.41 0.37 0.33 0.29 0.28 0.28 0.30 0.34 0.38 0.40 0.43 0.36 0.28 0.28 0.31 0.31 0.35 0.38 0.39 0.38 0.41 0.31 0.34 0.32 0.26 0.23 0.35 0.49 0.52 0.52 0.49 0.48 0.51 0.53 0.55 0.57 0.56 0.59 0.59 0.61 0.62 0.64 0.65
0.61 0.48 0.49 0.41 0.57 0.56 0.42 0.49 0.38 0.31 0.31 0.32 0.29 0.28 0.25 0.30 0.34 0.38 0.38 0.34 0.40 0.42 0.49 0.39 0.33 0.38 0.35 0.34 0.33 0.38 0.30 0.30 0.41 0.30 0.27 0.36 0.34 0.38 0.34 0.37 0.37 0.30 0.27 0.33 0.37 0.42 0.37 0.35 0.28 0.22 0.21 0.19 0.21 0.23 0.25 0.25 0.26 0.27 0.34 0.31 0.31 0.31 0.34 0.31 0.29 0.31 0.26 0.33 0.35 0.30 0.30 0.41 0.49 0.49 0.46 0.45 0.45 0.48 0.52 0.54 0.56 0.58 0.58 0.58 0.58 0.59 0.61 0.62
0.59 0.41 0.46 0.48 0.40 0.42 0.46 0.51 0.44 0.36 0.31 0.30 0.31 0.34 0.38 0.25 0.27 0.32 0.39 0.32 0.37 0.36 0.40 0.43 0.37 0.40 0.35 0.40 0.39 0.33 0.31 0.29 0.32 0.34 0.39 0.38 0.39 0.34 0.28 0.46 0.38 0.33 0.32 0.27 0.34 0.33 0.34 0.37 0.37 0.25 0.25 0.22 0.24 0.27 0.34 0.34 0.29 0.25 0.25 0.28 0.28 0.32 0.34 0.35 0.33 0.30 0.26 0.32 0.31 0.37 0.36 0.35 0.39 0.41 0.41 0.42 0.43 0.43 0.47 0.51 0.51 0.53 0.56 0.57 0.58 0.57 0.59 0.59
0.60 0.52 0.41 0.40 0.37 0.45 0.38 0.38 0.39 0.39 0.33 0.34 0.28 0.28 0.31 0.34 0.29 0.28 0.40 0.41 0.38 0.33 0.32 0.38 0.38 0.43 0.31 0.33 0.34 0.37 0.33 0.34 0.34 0.35 0.28 0.34 0.35 0.36 0.38 0.43 0.42 0.38 0.40 0.41 0.42 0.44 0.40 0.37 0.38 0.33 0.25 0.27 0.29 0.30 0.32 0.29 0.25 0.26 0.25 0.26 0.29 0.30 0.31 0.29 0.28 0.26 0.35 0.29 0.26 0.34 0.38 0.35 0.37 0.39 0.38 0.39 0.41 0.40 0.43 0.46 0.48 0.51 0.52 0.53 0.55 0.57 0.58 0.58
0.50 0.56 0.51 0.60 0.45 0.33 0.28 0.29 0.39 0.44 0.37 0.41 0.35 0.33 0.36 0.30 0.34 0.28 0.27 0.33 0.32 0.38 0.41 0.35 0.37 0.35 0.37 0.34 0.34 0.26 0.31 0.32 0.33 0.25 0.37 0.33 0.39 0.39 0.38 0.44 0.42 0.40 0.42 0.43 0.40 0.33 0.34 0.33 0.35 0.29 0.27 0.31 0.31 0.29 0.32 0.29 0.29 0.30 0.29 0.27 0.27 0.29 0.30 0.27 0.26 0.31 0.30 0.26 0.25 0.31 0.33 0.33 0.37 0.38 0.38 0.38 0.37 0.38 0.39 0.42 0.44 0.48 0.50 0.52 0.53 0.53 0.53 0.54
0.66 0.55 0.53 0.55 0.53 0.50 0.50 0.45 0.46 0.42 0.31 0.42 0.35 0.32 0.35 0.32 0.33 0.36 0.37 0.27 0.33 0.33 0.39 0.21 0.35 0.34 0.32 0.33 0.39 0.40 0.31 0.36 0.28 0.33 0.32 0.37 0.30 0.39 0.35 0.37 0.41 0.40 0.40 0.36 0.32 0.39 0.36 0.30 0.34 0.30 0.25 0.29 0.32 0.30 0.34 0.32 0.31 0.30 0.30 0.31 0.29 0.28 0.28 0.28 0.29 0.30 0.30 0.27 0.29 0.31 0.31 0.32 0.37 0.35 0.35 0.36 0.38 0.39 0.38 0.42 0.43 0.45 0.45 0.49 0.53 0.53 0.52 0.52
0.57 0.57 0.44 0.41 0.50 0.50 0.49 0.44 0.37 0.29 0.33 0.29 0.21 0.28 0.38 0.31 0.36 0.28 0.31 0.39 0.28 0.35 0.33 0.32 0.33 0.28 0.27 0.35 0.40 0.40 0.36 0.36 0.36 0.39 0.38 0.37 0.38 0.31 0.36 0.28 0.25 0.41 0.44 0.41 0.38 0.38 0.23 0.29 0.32 0.31 0.27 0.30 0.34 0.35 0.36 0.32 0.29 0.28 0.29 0.31 0.31 0.29 0.28 0.30 0.31 0.32 0.32 0.29 0.30 0.31 0.29 0.31 0.40 0.42 0.40 0.42 0.41 0.39 0.38 0.38 0.44 0.44 0.47 0.49 0.51 0.51 0.50 0.50
0.69 0.72 0.64 0.47 0.38 0.45 0.37 0.32 0.30 0.33 0.38 0.26 0.26 0.34 0.33 0.34 0.40 0.30 0.32 0.40 0.37 0.38 0.30 0.38 0.35 0.23 0.26 0.30 0.33 0.38 0.35 0.37 0.34 0.37 0.38 0.45 0.35 0.30 0.33 0.33 0.32 0.28 0.34 0.39 0.38 0.33 0.38 0.30 0.33 0.33 0.28 0.28 0.35 0.36 0.33 0.32 0.30 0.29 0.29 0.29 0.29 0.29 0.27 0.30 0.27 0.31 0.28 0.26 0.28 0.27 0.29 0.35 0.42 0.45 0.43 0.41 0.40 0.37 0.36 0.38 0.40 0.43 0.48 0.52 0.49 0.48 0.49 0.49
0.71 0.73 0.61 0.51 0.49 0.46 0.34 0.35 0.36 0.33 0.36 0.38 0.33 0.36 0.29 0.33 0.46 0.34 0.28 0.29 0.34 0.37 0.38 0.39 0.30 0.37 0.35 0.32 0.36 0.38 0.35 0.37 0.39 0.44 0.40 0.40 0.43 0.38 0.34 0.34 0.27 0.26 0.27 0.30 0.36 0.36 0.32 0.27 0.28 0.29 0.19 0.22 0.36 0.36 0.33 0.30 0.30 0.30 0.33 0.34 0.33 0.32 0.32 0.31 0.32 0.33 0.35 0.35 0.29 0.24 0.29 0.40 0.44 0.45 0.41 0.39 0.38 0.36 0.37 0.38 0.41 0.45 0.51 0.52 0.49 0.47 0.48 0.49
Wind_Speed
21 23 24 25 25 25 24 23 21 20 18 15 12 11 9 8 8 7 6 6 5 4 3 3 3 4 4 5 6 7 7 8 9 10 11 9 8 8 8 9 9 9 9 9 10 10 10 10 10 10 9 9 9 9 9 10 10 8 8 8 7 7 7 6 6 6 6 4 3 3 3 5 3 3 5 5 5 5 3 4 4 3 3 3 4 6 6 5
22 23 24 25 25 24 24 23 21 19 16 13 11 9 9 8 7 6 5 4 3 2 2 1 2 2 3 4 5 5 6 7 8 9 9 8 7 7 8 8 9 10 10 10 9 9 9 9 9 10 10 9 9 9 9 10 11 9 9 8 8 6 5 4 3 2 3 3 2 2 4 4 3 4 6 6 6 5 4 4 5 4 4 5 4 5 6 6
22 23 24 25 24 24 24 22 20 17 14 11 10 9 9 8 7 6 5 4 3 2 1 0 1 1 2 3 4 5 5 6 7 8 8 8 7 6 7 8 9 10 11 10 8 8 8 8 9 10 9 9 8 8 8 9 10 10 10 9 8 6 6 3 4 2 1 3 2 2 3 4 3 4 5 5 6 5 4 5 5 5 6 6 5 5 6 6
22 23 24 24 24 24 23 21 19 16 13 11 10 9 9 8 7 5 5 4 3 2 2 1 1 2 2 3 4 4 5 5 6 8 8 8 7 6 7 8 9 10 10 8 6 7 8 7 8 9 9 8 9 9 8 8 10 10 11 12 7 6 6 5 7 6 4 4 3 2 3 4 3 4 3 4 6 5 4 5 5 6 6 6 6 5 5 4
22 23 24 25 24 24 23 21 18 14 12 11 10 10 9 8 7 5 5 4 4 3 3 3 3 4 4 5 5 5 5 5 7 8 7 8 7 7 7 7 9 8 8 7 6 7 8 7 8 9 8 8 9 9 9 9 10 9 11 14 10 7 7 7 8 9 8 8 6 6 5 3 4 4 3 3 4 4 5 6 5 5 6 6 6 5 4 2
22 23 24 24 24 23 22 20 17 14 13 12 11 10 9 8 7 6 5 5 4 4 4 4 5 5 6 5 5 5 5 6 7 7 7 8 7 7 7 8 8 7 7 7 6 6 7 7 7 8 8 7 9 9 10 11 11 10 10 13 11 8 8 5 6 8 8 11 10 8 5 4 6 6 5 4 3 4 6 7 5 6 6 5 6 5 4 4
22 23 24 24 24 23 22 19 17 14 13 12 11 11 10 9 8 6 6 5 5 5 5 6 6 6 5 5 5 5 5 6 7 7 8 8 8 8 8 8 8 7 7 6 5 6 6 7 8 7 7 7 8 9 10 11 11 11 11 10 10 12 11 6 6 7 7 11 11 8 6 6 7 4 5 6 5 5 5 6 6 6 5 5 7 6 5 6
21 22 23 23 23 23 21 19 17 15 14 13 12 11 10 9 8 7 7 7 7 7 7 7 7 6 5 5 4 5 6 7 7 7 8 8 9 9 9 8 8 7 6 6 5 6 6 6 7 7 7 6 6 7 8 9 10 11 12 10 9 11 12 10 8 8 8 10 11 10 8 8 8 5 4 6 6 6 5 6 6 6 5 6 7 5 5 4
21 22 23 23 23 23 21 19 17 16 14 13 12 12 11 10 9 9 8 8 8 8 8 8 7 6 6 5 4 5 7 7 8 8 8 9 9 8 8 7 7 6 6 5 5 6 5 5 6 6 8 6 6 7 7 8 10 10 13 11 9 9 11 12 11 11 10 10 11 12 11 11 10 8 6 6 5 6 6 6 7 6 6 7 5 3 4 4
20 21 22 22 23 23 21 19 18 17 15 14 13 13 12 11 10 10 9 9 9 9 8 8 7 6 6 5 4 6 7 7 8 9 9 9 8 8 7 6 5 4 4 4 5 5 3 5 6 4 6 6 6 7 8 8 7 8 12 12 11 11 11 12 13 13 12 11 12 12 12 12 11 10 9 8 7 7 7 7 7 6 7 8 6 4 5 4
20 20 21 22 23 22 21 19 18 17 16 15 14 13 12 11 11 10 10 10 9 9 8 8 8 7 6 5 5 7 7 7 8 9 9 8 7 6 5 5 4 3 4 4 3 4 3 3 5 4 3 5 5 6 8 9 7 7 11 11 12 13 13 13 13 13 13 12 12 12 12 12 12 11 11 11 9 8 7 8 8 7 8 9 7 5 5 5
19 19 20 21 22 22 21 19 18 18 17 16 15 14 13 12 12 12 11 11 10 9 9 8 8 8 6 5 7 8 8 7 8 9 9 7 6 4 4 5 3 2 3 2 1 3 3 2 4 5 4 5 6 5 7 9 9 10 11 11 12 13 14 14 13 14 13 12 12 12 12 13 13 11 10 10 9 8 7 8 8 8 8 9 9 6 6 6
18 18 20 21 22 22 21 20 18 18 17 16 16 15 14 13 13 12 12 12 11 11 10 10 9 8 7 8 10 9 8 9 9 9 8 7 6 5 5 4 2 3 3 1 0 2 3 3 4 6 6 6 6 6 7 8 9 11 11 11 11 12 14 14 14 14 14 14 13 12 11 12 13 12 11 11 9 8 9 9 9 9 9 9 10 9 7 7
16 17 19 19 21 21 21 20 18 17 17 16 16 15 15 14 13 13 13 12 12 12 12 12 11 10 9 11 10 9 9 9 10 9 8 7 7 6 5 4 3 3 2 0 0 1 2 3 5 6 6 6 7 7 7 9 9 9 11 11 10 11 12 14 15 14 14 13 12 12 11 10 11 12 12 12 12 10 10 10 10 9 9 9 11 10 7 7
15 17 18 18 19 20 20 19 18 17 17 16 16 15 15 15 14 14 13 13 12 12 12 11 11 10 10 12 11 10 10 10 10 9 8 7 6 5 4 3 2 2 1 0 1 1 2 3 4 5 6 7 7 7 7 8 8 8 9 10 10 9 10 12 15 12 12 12 12 13 12 10 10 11 12 13 13 10 9 10 10 10 9 9 10 10 9 8
14 15 16 17 18 19 19 19 18 17 17 16 16 16 15 15 15 14 14 13 12 12 11 10 10 9 10 12 11 11 10 9 9 8 6 5 3 3 3 3 2 1 1 1 1 2 2 3 4 6 6 6 7 7 7 8 8 8 8 9 10 10 9 9 13 12 11 12 14 14 12 11 9 10 12 11 11 11 10 10 10 10 10 9 10 11 10 8
13 14 15 16 17 17 18 18 18 17 17 17 17 16 16 16 16 15 14 13 13 12 11 10 9 9 10 11 11 10 10 9 8 7 6 5 3 3 2 2 1 1 0 1 1 2 2 3 4 5 5 5 7 8 8 7 7 8 9 10 10 10 9 7 11 14 13 12 13 13 12 14 12 10 10 11 11 13 13 11 11 11 10 10 10 11 11 9
12 13 14 15 15 16 17 17 17 17 17 17 17 16 16 15 15 14 13 13 13 12 11 10 9 9 10 10 10 10 10 9 8 7 6 6 5 4 2 1 1 1 1 1 2 3 3 3 4 5 5 6 6 6 7 7 7 8 9 10 10 10 10 8 9 12 14 12 13 13 13 14 14 12 10 11 12 12 12 11 10 11 11 11 12 12 12 11
11 12 12 13 14 15 15 16 16 16 17 17 16 16 15 15 15 14 13 12 12 12 12 11 11 11 12 11 11 11 10 9 8 7 6 5 4 4 4 3 3 2 2 2 2 2 3 4 5 5 6 7 6 6 8 9 10 11 11 11 11 11 11 11 9 11 12 10 11 13 14 13 13 14 13 11 10 10 11 10 10 12 12 12 12 12 13 13
10 10 11 12 13 14 14 14 14 15 16 16 16 15 14 14 14 14 14 12 12 14 14 13 13 13 13 12 12 11 11 9 8 7 7 6 4 3 3 2 2 3 3 3 1 2 4 6 5 4 6 7 8 9 11 12 13 14 14 13 14 13 12 13 12 12 13 13 12 13 14 14 13 13 14 14 12 11 11 12 13 13 13 12 12 12 14 15
8 9 10 11 11 12 13 13 13 13 13 14 14 14 14 14 13 14 14 14 14 14 15 15 14 13 12 12 11 9 9 9 9 8 7 7 5 4 3 2 2 2 3 3 3 4 6 7 5 5 7 9 10 12 13 13 14 15 14 14 14 14 14 15 14 12 13 13 13 13 14 15 15 14 14 14 14 12 11 12 12 11 10 9 10 10 10 13
7 8 8 9 10 11 11 12 12 12 12 12 12 12 14 15 14 14 13 13 13 12 13 14 14 13 13 12 10 9 7 7 9 8 7 7 6 5 4 3 4 4 4 3 3 5 6 7 7 7 9 11 11 13 13 13 14 14 14 13 13 13 13 14 15 14 14 11 11 12 13 14 15 15 13 10 10 11 10 10 9 8 8 8 8 8 8 11
7 7 7 8 8 9 10 10 11 11 11 11 11 12 13 13 13 13 12 11 11 12 12 13 13 12 10 10 10 9 6 5 8 9 7 7 8 7 6 4 5 5 5 5 4 6 7 8 9 9 11 13 13 13 14 14 13 13 12 12 12 11 11 11 11 13 15 14 12 13 13 13 13 14 12 8 7 8 6 5 7 8 8 8 8 8 10 12
6 6 6 7 7 8 8 9 9 9 9 10 11 12 12 12 12 13 12 10 11 12 11 11 11 10 9 9 8 8 7 6 7 9 8 8 8 7 7 6 5 4 6 7 7 7 8 9 10 11 12 13 14 14 14 13 12 12 11 11 12 12 11 10 10 10 12 13 12 12 12 12 11 12 11 8 7 8 7 6 7 8 9 10 10 9 11 13
6 6 5 6 6 7 7 8 8 8 8 9 10 11 10 11 11 11 11 9 9 10 9 9 10 10 10 7 8 10 7 7 8 8 8 9 9 7 7 8 5 6 8 8 8 7 7 9 11 13 13 13 15 14 13 13 12 12 11 11 14 14 12 11 9 9 8 10 9 10 10 9 7 7 7 7 7 8 9 8 8 9 10 11 13 14 14 14
5 5 5 5 5 5 6 6 7 7 7 8 10 9 9 10 10 10 10 7 9 9 7 8 8 9 8 6 8 10 7 6 8 8 8 9 9 7 7 8 6 7 9 9 8 7 7 11 13 13 14 14 14 13 13 13 12 12 12 13 14 14 14 13 10 8 8 9 9 9 9 7 3 3 4 6 6 6 8 9 9 10 11 11 13 14 15 15
4 5 4 4 4 4 5 5 6 7 7 7 8 8 8 9 9 10 8 6 8 8 6 8 8 7 7 7 7 7 7 7 7 7 8 9 9 7 7 9 8 7 9 9 9 8 9 13 14 14 14 13 13 13 14 14 13 11 11 13 14 14 14 14 13 11 10 10 10 10 10 7 4 4 5 5 6 7 8 9 9 10 9 10 11 12 14 14
3 4 4 4 3 3 4 3 4 6 6 6 6 6 7 8 8 8 7 7 8 7 6 7 8 6 6 6 6 8 8 8 7 7 9 8 9 9 7 10 10 9 10 9 9 9 10 14 15 13 13 13 13 15 16 15 12 11 11 11 12 13 14 14 14 14 12 11 12 11 10 8 6 7 8 6 6 8 8 8 9 9 8 9 10 12 13 13
3 3 3 4 3 3 3 2 3 5 6 5 5 6 6 6 7 6 6 7 6 5 6 6 6 6 6 5 5 8 8 7 8 8 8 7 8 10 8 9 11 10 9 7 8 9 10 13 13 11 13 15 15 16 16 13 11 11 11 10 10 11 12 13 13 14 14 13 14 14 11 8 7 8 9 8 7 8 8 7 8 9 9 9 10 11 12 13
2 3 2 3 3 3 2 1 2 4 4 4 4 5 6 6 6 5 5 7 6 6 6 6 6 5 7 6 5 8 7 7 9 9 8 6 7 11 10 9 11 11 9 6 8 9 8 10 10 11 14 16 15 16 16 14 13 11 9 8 8 8 8 10 11 12 13 13 14 15 11 7 8 8 8 9 9 9 9 8 9 9 9 10 11 11 11 11
2 2 2 2 2 2 2 1 2 3 3 4 4 4 5 5 5 5 6 6 4 6 6 6 7 6 8 7 6 7 6 7 10 10 9 7 8 12 12 9 11 12 9 8 10 10 6 8 10 11 14 16 15 16 15 15 15 13 10 8 7 5 4 5 8 9 11 11 11 12 9 7 8 9 9 9 9 10 10 10 10 11 11 11 11 11 11 10
2 2 1 1 1 1 2 3 3 3 3 3 3 4 4 5 4 5 7 4 3 6 6 6 8 8 8 7 6 8 7 7 10 10 9 9 8 10 12 11 12 12 10 10 11 10 7 9 12 12 13 16 17 15 14 15 15 13 11 9 7 4 1 2 4 6 8 9 7 8 8 7 8 10 9 9 8 9 10 10 10 11 11 12 12 12 12 12
2 2 1 1 1 1 2 3 3 2 3 3 3 3 4 5 5 5 6 6 4 6 6 5 7 7 8 8 7 8 8 7 10 9 9 9 8 9 11 13 14 12 10 11 11 10 8 9 14 14 12 15 16 14 13 15 15 14 12 10 8 5 2 1 1 2 4 6 6 6 7 7 9 9 9 9 8 8 9 9 10 11 12 12 13 13 13 13
2 2 2 1 2 2 2 2 2 2 2 2 2 3 3 4 6 6 5 7 6 5 6 5 6 6 6 8 8 8 7 7 10 9 8 10 9 9 11 13 14 12 10 10 10 10 9 8 13 15 13 14 15 13 14 14 13 13 13 11 9 5 3 3 1 1 1 2 4 5 6 7 8 9 10 10 8 8 9 10 11 12 12 13 13 14 14 14
2 1 1 2 2 2 2 2 2 2 2 2 1 2 4 4 6 6 5 7 7 6 6 5 6 6 5 6 8 8 7 8 10 9 8 10 10 10 12 12 14 13 10 10 10 10 10 9 13 15 12 12 14 13 13 14 12 12 12 11 10 7 4 2 1 2 3 2 1 2 3 5 6 7 10 10 8 8 9 10 11 12 12 13 13 14 15 15
1 1 1 1 1 1 1 1 1 1 1 1 1 3 5 4 5 6 5 6 6 6 7 5 5 7 6 6 7 8 7 8 10 9 8 8 9 11 12 11 12 13 11 10 9 10 10 9 12 14 11 12 14 12 13 14 12 11 12 11 10 8 5 3 2 1 3 2 1 1 2 4 5 5 7 8 7 8 9 10 11 11 13 13 14 14 15 15
2 1 1 1 0 1 2 1 1 0 0 1 2 3 5 5 5 5 5 6 6 5 7 6 6 6 7 7 7 8 9 8 9 10 8 7 8 11 12 10 12 13 11 10 9 9 10 9 11 13 12 12 12 11 12 13 12 12 12 11 10 8 6 5 3 2 2 1 1 2 2 4 5 5 7 7 7 9 10 10 11 11 13 14 14 14 15 15
2 2 1 1 1 2 1 1 1 1 1 1 2 2 4 5 6 5 5 6 5 5 6 7 6 6 6 7 8 8 10 10 10 10 9 8 9 11 11 10 11 13 12 10 9 9 9 9 9 10 12 12 10 10 12 13 13 12 11 11 10 8 7 7 6 4 3 2 1 1 1 3 4 5 7 8 9 10 11 11 11 11 12 13 13 13 14 14
2 2 1 0 2 2 1 1 1 1 0 1 2 2 3 4 5 6 6 5 5 6 7 7 6 6 6 7 8 8 9 10 10 10 9 9 9 10 11 10 11 13 12 10 10 9 8 9 8 8 10 11 10 11 12 12 13 12 10 10 11 8 7 7 6 5 5 3 1 1 2 3 4 6 8 9 11 11 11 12 11 11 12 12 13 13 13 13
2 1 2 1 2 2 2 2 1 0 1 2 3 3 3 4 5 6 6 5 5 6 7 7 7 6 7 7 7 8 9 10 10 10 9 10 9 9 11 11 10 12 11 9 9 10 8 8 9 10 10 10 10 11 12 11 12 12 11 12 11 9 8 7 5 5 6 4 3 2 3 3 5 7 8 9 10 10 10 11 11 11 12 12 13 13 13 13
2 2 2 1 1 1 2 0 1 1 1 1 2 3 3 4 5 5 5 5 5 5 6 7 8 8 8 8 8 9 9 9 10 9 9 10 10 9 11 11 10 11 11 9 8 9 9 8 9 10 11 9 9 11 11 11 10 10 11 12 11 10 10 7 5 7 7 5 5 4 2 2 4 6 8 8 9 9 10 10 10 10 11 11 12 13 12 13
2 2 2 2 1 2 1 1 1 0 1 2 2 3 2 2 4 5 4 5 6 6 6 6 8 8 8 8 9 10 9 9 10 10 9 10 10 10 11 11 11 11 10 9 9 10 9 8 8 9 10 9 9 9 11 11 10 9 10 12 11 10 9 8 7 8 8 7 7 4 2 3 5 6 7 7 8 8 9 10 10 10 11 11 11 12 12 12
2 2 3 3 3 3 0 0 1 1 2 3 3 3 2 2 3 3 4 5 6 6 6 7 7 8 8 8 9 10 10 9 10 10 9 9 10 10 10 11 12 11 10 9 9 9 9 8 8 9 9 8 6 7 9 12 11 9 10 11 11 10 9 8 7 7 7 8 8 6 4 4 5 6 7 7 8 8 9 9 10 10 11 11 11 11 12 12
3 2 2 4 5 3 1 1 1 1 2 2 2 3 3 3 4 4 4 5 6 5 6 7 7 8 8 7 8 10 10 9 9 10 10 9 9 10 11 11 12 12 10 8 8 9 9 9 9 10 10 8 6 5 8 12 12 10 10 11 10 11 11 9 7 6 6 8 10 7 5 4 5 6 7 8 9 9 10 10 10 10 10 11 12 12 12 12
4 3 3 4 6 4 2 1 1 2 2 2 2 2 2 2 3 4 5 5 5 6 6 6 6 7 7 7 8 9 10 10 10 10 8 8 8 9 10 10 11 12 11 8 8 8 9 10 10 10 10 10 9 8 10 12 11 10 10 11 11 11 11 10 8 7 7 9 9 7 5 5 5 7 8 9 10 10 11 11 10 10 11 11 12 12 12 13
4 4 4 5 5 5 3 1 1 2 3 2 1 1 1 2 2 3 4 5 5 6 6 6 6 7 7 8 8 9 10 10 10 10 9 8 8 8 9 8 10 13 11 9 9 8 9 9 9 9 10 10 10 10 10 11 11 10 11 11 11 10 11 10 8 8 8 9 7 6 7 6 6 8 9 10 11 12 12 12 12 12 12 12 12 13 13 13
5 4 4 5 5 4 4 3 2 2 2 2 0 0 0 1 2 2 4 4 4 4 5 6 6 7 8 8 8 9 9 10 11 10 10 10 8 7 8 8 9 11 9 8 9 9 9 9 8 9 10 10 10 10 10 10 10 11 11 11 10 10 10 10 8 8 9 8 6 7 9 9 8 9 11 11 12 12 12 13 13 13 13 13 13 13 14 14
6 5 5 5 4 4 4 4 3 3 3 2 2 2 1 1 1 2 3 3 3 3 4 5 6 7 8 8 8 9 9 9 11 10 10 10 9 7 7 8 9 9 8 9 10 9 10 9 9 10 11 10 9 8 9 10 11 11 11 10 10 10 10 10 9 9 9 9 8 9 10 10 9 10 12 13 13 13 13 13 13 14 14 14 14 14 14 15
6 5 6 6 5 4 4 4 3 4 4 2 3 3 2 2 1 2 3 2 3 4 4 4 5 6 7 7 8 9 9 9 10 11 10 10 10 9 8 8 8 9 10 11 10 10 9 10 11 11 11 10 7 7 9 11 10 10 10 10 10 10 10 10 10 10 10 10 10 11 11 10 9 11 13 14 14 14 14 13 13 14 15 15 15 15 15 15
7 6 6 8 7 5 6 6 5 5 4 4 3 3 3 3 2 2 3 3 3 3 4 4 5 6 7 8 8 9 9 9 9 10 10 9 10 10 9 10 9 10 11 10 9 9 9 10 11 11 10 9 6 6 10 10 10 11 10 10 10 10 10 10 10 10 11 11 11 12 12 10 8 11 13 14 15 16 16 15 15 15 16 16 16 15 15 16
8 8 8 8 7 7 7 7 7 6 6 5 5 4 4 4 3 3 3 3 4 4 4 5 4 5 6 7 8 8 9 9 9 10 9 8 9 9 9 10 11 11 11 10 10 10 10 11 12 11 10 9 6 7 9 10 11 11 10 9 10 10 10 10 11 12 11 12 12 12 12 9 9 12 14 15 15 16 17 17 16 16 16 16 16 16 16 16
9 9 9 9 8 7 8 8 8 8 7 5 5 5 5 5 4 3 4 4 4 4 5 4 5 6 6 7 7 8 8 9 9 10 9 8 9 9 9 10 10 10 11 11 11 11 10 11 12 11 11 9 7 8 10 11 11 10 9 9 9 10 12 11 12 12 12 11 12 12 11 11 12 14 15 15 16 17 17 16 15 15 16 15 16 16 16 17
Wind_Direction
347 346 345 345 345 344 343 342 341 339 338 337 336 337 338 336 333 328 323 318 312 302 289 273 250 242 236 230 227 223 220 214 209 209 208 209 210 207 206 203 201 195 186 186 190 192 194 199 201 201 205 207 210 215 220 213 214 222 213 221 222 219 240 228 223 239 229 211 221 250 245 246 244 194 200 200 197 206 208 194 205 228 214 187 178 192 200 219
351 349 348 348 348 347 346 346 344 343 345 345 346 348 348 347 344 341 338 335 331 324 312 278 239 229 224 218 213 208 202 202 207 209 201 195 195 194 196 195 191 184 178 182 186 186 188 192 196 198 203 206 204 211 219 210 213 216 208 218 214 226 259 220 215 224 198 202 215 251 227 237 257 211 210 207 210 212 203 202 208 220 204 187 186 188 192 209
354 352 351 351 351 351 350 350 349 350 353 355 356 357 357 355 353 353 354 355 358 1 10 52 182 196 198 193 191 187 188 202 204 191 180 180 180 179 181 182 181 178 179 185 185 186 189 192 195 198 203 209 208 209 213 208 212 214 213 215 211 251 279 201 196 197 183 227 230 268 230 234 256 205 207 218 213 202 205 218 209 208 199 194 201 200 202 218
356 355 355 355 355 354 354 354 355 358 2 4 5 5 4 2 1 4 8 15 22 31 48 81 112 139 149 154 159 162 179 194 175 159 163 169 166 169 170 170 175 177 184 192 194 198 201 197 195 200 206 211 211 210 215 211 206 212 214 215 228 276 273 229 223 225 228 239 236 264 249 238 221 183 215 239 211 206 227 222 203 193 186 186 195 202 215 229
359 358 358 359 359 359 359 360 2 7 11 13 13 12 11 10 12 16 24 32 38 49 65 86 105 116 125 133 141 148 161 164 152 148 157 161 160 163 163 163 170 176 186 198 202 203 207 205 200 204 212 219 218 216 223 221 212 219 222 225 250 281 260 247 232 224 228 239 242 246 257 250 215 201 226 227 200 234 233 203 191 179 175 181 188 203 212 193
1 1 1 3 4 3 4 7 10 15 18 19 18 18 18 19 23 29 36 44 52 62 76 95 108 114 121 127 133 147 148 140 149 155 153 156 158 159 161 162 168 172 183 206 209 195 201 203 199 203 210 221 224 222 225 224 219 226 230 234 249 253 250 255 230 227 234 238 235 237 257 256 239 229 217 200 169 206 195 187 200 180 180 189 187 203 200 184
4 3 5 7 8 8 10 13 16 20 22 23 23 23 24 27 33 41 48 57 64 72 86 100 108 107 113 118 124 143 143 130 140 149 150 155 156 155 157 157 163 168 178 200 194 181 193 198 198 201 208 222 230 229 225 222 223 229 235 245 246 235 242 260 236 232 237 235 231 236 253 240 240 238 215 214 194 188 170 180 199 181 192 197 185 193 183 182
6 6 8 11 12 13 15 18 21 23 24 25 26 27 30 35 42 52 60 68 72 81 92 97 100 99 102 108 122 136 126 122 131 141 147 151 152 151 153 154 162 171 184 197 189 183 193 196 200 207 216 235 242 232 222 220 228 232 234 247 248 235 241 246 236 236 239 231 226 234 245 233 236 246 225 219 208 209 198 190 196 190 194 184 172 172 169 176
9 10 12 15 16 16 19 23 25 28 30 31 32 34 37 43 51 61 68 73 78 87 94 97 100 99 102 106 125 129 114 116 127 134 140 147 151 151 157 167 173 184 195 200 196 186 195 209 214 229 237 254 259 235 227 226 233 234 232 242 248 243 242 239 237 241 242 232 227 232 239 237 239 247 244 235 215 204 208 206 204 201 189 181 178 173 179 183
13 14 16 19 20 21 23 26 29 33 36 38 38 40 43 48 57 65 71 76 83 91 96 98 96 94 101 104 113 120 117 121 125 130 138 143 150 152 163 177 179 185 177 178 194 191 215 234 224 245 245 248 258 243 235 233 242 244 238 247 253 250 247 242 239 239 239 235 231 233 238 238 237 241 242 242 230 203 206 209 204 208 196 199 212 200 200 200
16 17 19 22 23 24 27 30 34 38 41 43 43 44 48 54 62 69 74 79 84 91 94 93 92 91 97 101 101 111 120 123 122 129 136 140 152 161 161 157 162 178 165 165 200 211 248 253 220 226 239 250 259 250 241 240 253 255 245 254 257 254 253 246 239 236 237 234 230 235 240 239 235 235 238 240 230 208 210 212 210 224 214 206 211 205 208 210
19 21 22 24 26 27 30 34 39 43 45 46 46 48 53 59 65 71 74 79 83 87 90 89 89 86 86 91 94 104 114 118 121 128 134 136 140 147 146 142 151 183 183 196 215 216 241 246 217 229 265 269 259 261 254 246 255 256 250 260 260 253 251 246 241 237 236 235 230 234 240 240 234 228 236 238 217 200 216 223 220 231 228 213 213 213 213 215
22 23 25 27 29 31 33 37 43 46 47 48 49 53 57 62 67 72 75 78 80 81 83 85 85 82 80 84 92 102 106 112 121 126 129 130 119 114 126 135 137 152 164 226 168 193 227 227 225 252 277 260 254 282 269 252 260 260 252 258 262 256 248 238 236 235 234 235 226 225 234 235 232 225 234 237 212 208 230 238 237 236 234 221 219 223 221 224
25 26 27 29 31 34 36 39 44 47 49 50 53 56 59 64 67 72 76 78 80 80 82 83 80 77 78 81 89 100 101 110 121 120 118 117 114 107 111 121 115 135 155 194 215 226 235 237 241 262 274 251 266 290 269 255 259 262 255 252 257 261 254 234 227 231 232 228 215 220 232 236 238 226 229 239 221 218 233 239 242 238 234 227 221 222 222 232
27 28 30 31 34 37 39 41 45 49 52 53 56 59 61 65 68 73 77 79 81 81 81 80 78 79 81 82 88 97 104 113 116 114 111 112 116 107 104 114 106 124 157 175 266 273 261 260 255 265 272 255 268 282 268 259 252 255 259 253 249 257 266 237 218 223 227 221 211 222 235 237 245 235 232 234 216 215 237 241 241 241 241 232 221 223 229 236
29 31 32 33 36 39 41 44 47 51 54 56 58 60 63 67 70 73 76 79 78 78 78 77 83 86 79 82 90 98 104 108 108 107 105 110 114 99 100 103 94 107 66 12 315 303 283 278 266 272 283 264 259 268 273 272 259 254 256 261 258 254 269 238 210 217 227 227 219 220 235 236 241 247 234 219 213 228 244 248 246 243 245 236 224 227 231 233
31 33 34 35 38 41 44 47 50 53 55 58 60 62 66 69 70 72 73 75 74 74 75 70 77 84 80 86 94 95 95 98 103 99 91 96 86 75 109 116 71 87 8 334 350 319 279 287 279 269 280 271 265 269 275 279 273 265 256 263 266 257 265 235 211 223 226 231 224 217 234 241 244 252 223 209 228 239 237 241 244 242 247 243 233 227 226 229
32 34 37 38 40 42 46 50 53 56 57 58 61 64 66 66 67 68 69 72 71 69 69 65 68 80 87 93 95 93 91 90 95 95 85 80 74 70 81 60 13 3 291 285 313 300 274 285 288 276 279 280 280 275 274 285 289 284 269 264 266 262 258 238 222 225 222 232 234 227 234 238 242 242 220 216 230 231 232 241 242 244 248 246 241 232 228 233
34 36 38 40 42 44 47 51 55 59 59 59 62 65 66 67 67 67 68 70 68 63 64 70 74 80 87 92 93 92 87 84 87 90 79 67 76 76 60 47 37 20 332 302 290 302 294 289 293 296 297 294 294 291 289 297 296 289 282 271 268 266 255 246 237 220 219 235 239 237 238 235 236 232 226 231 228 224 235 247 253 254 251 247 246 236 231 236
35 37 39 42 43 45 48 51 56 59 61 60 61 63 63 65 67 68 69 69 67 63 63 70 76 81 87 90 91 89 84 84 80 74 64 59 70 53 33 35 29 11 345 337 351 12 340 311 308 302 306 312 308 303 298 296 293 285 279 272 267 266 258 253 247 226 230 248 247 243 242 236 237 234 234 237 231 229 241 252 258 257 255 252 247 243 238 234
36 37 40 42 44 46 48 51 55 57 59 57 57 60 61 63 67 68 67 68 70 69 67 70 73 78 80 81 87 90 87 81 66 60 59 55 51 28 31 30 352 344 352 350 336 351 339 323 323 302 309 321 309 303 298 291 291 284 276 271 264 263 260 256 252 232 226 244 249 247 245 241 241 240 238 236 232 236 249 255 254 254 261 259 249 253 249 232
35 38 39 42 44 45 46 48 53 56 57 57 56 60 64 66 69 66 64 66 67 67 71 74 76 81 78 76 82 80 81 78 61 60 61 48 31 22 37 23 359 4 7 350 318 334 337 335 342 328 321 323 311 305 301 294 293 286 279 275 265 265 271 262 251 233 222 236 253 248 247 247 243 240 237 233 232 240 251 251 245 252 263 262 251 245 243 242
33 37 38 41 43 44 45 46 49 54 58 56 56 61 64 65 64 63 61 64 67 69 75 74 73 78 74 72 76 63 62 74 56 53 53 33 20 27 32 7 3 15 6 359 352 341 340 352 358 342 327 323 317 313 308 300 293 288 283 276 267 274 285 271 258 251 237 236 250 252 253 253 244 238 234 227 229 235 242 244 244 252 257 259 254 236 234 245
30 35 37 38 42 43 43 44 48 57 58 51 55 63 65 62 58 55 54 64 74 70 70 70 64 64 64 71 68 46 54 74 50 44 41 21 17 30 29 17 18 14 4 5 357 332 331 353 351 332 327 328 324 320 316 307 294 292 290 277 271 277 282 271 271 275 245 226 243 256 255 253 244 238 233 220 222 228 233 250 257 261 262 261 259 251 245 244
29 32 36 38 43 42 40 46 54 61 56 47 57 65 60 57 56 50 48 66 78 67 67 70 62 60 63 70 53 37 58 75 45 35 33 24 22 23 22 23 15 0 2 359 346 332 339 358 349 333 333 333 327 325 326 317 299 293 293 283 276 276 274 269 274 279 246 226 251 260 246 241 241 242 229 205 211 224 234 249 262 268 270 268 264 261 257 253
26 28 34 38 43 41 40 56 61 55 48 49 60 61 53 53 53 47 48 69 76 65 68 67 57 58 58 59 48 39 55 59 35 31 29 25 23 17 15 14 4 6 8 357 349 345 344 353 351 343 339 335 333 334 335 326 305 292 289 283 280 275 265 261 265 266 246 242 261 262 242 227 219 236 222 204 217 233 240 248 262 269 270 270 269 265 261 258
24 24 28 33 40 38 38 60 58 37 39 55 59 53 49 47 42 41 46 68 69 55 60 60 51 51 50 50 41 30 36 33 26 33 26 18 17 10 5 5 3 7 5 357 359 1 350 348 348 345 343 342 344 343 338 328 313 301 293 282 275 271 262 257 256 250 245 253 259 259 250 231 208 229 234 225 238 252 253 253 263 271 272 273 273 269 266 263
18 19 23 27 31 33 37 58 35 22 39 57 53 46 45 38 34 37 40 56 60 46 49 54 44 39 38 40 32 26 34 27 19 27 18 14 18 11 4 7 1 351 350 350 356 9 9 357 351 352 355 354 351 347 342 333 321 313 307 293 280 269 262 257 252 243 243 252 250 251 257 241 223 236 242 242 254 263 261 257 262 270 277 283 282 275 268 266
12 13 20 21 23 34 44 48 12 19 42 51 44 38 30 23 27 31 36 48 52 43 45 42 36 37 27 24 28 25 30 27 18 14 7 12 20 10 360 3 359 345 344 348 344 353 5 1 358 3 3 359 355 349 345 342 336 326 317 309 298 279 263 253 246 240 240 246 244 246 254 245 230 241 242 239 250 259 258 255 259 268 278 285 288 285 277 271
4 6 15 23 31 40 44 52 16 20 34 35 33 26 16 19 21 16 35 49 48 41 36 26 29 30 10 6 20 16 16 20 13 3 4 11 10 6 2 1 360 350 347 353 341 336 351 5 6 7 5 1 357 354 355 358 355 345 333 324 317 301 275 251 240 237 238 242 242 243 248 239 235 247 247 240 244 252 257 261 265 272 280 284 287 288 285 278
360 4 12 25 32 32 19 28 31 21 20 18 19 14 9 19 16 12 32 42 33 29 28 28 30 18 5 9 19 18 16 18 12 7 12 12 5 8 7 5 2 357 358 4 353 348 6 17 6 6 9 4 357 358 6 10 4 357 352 343 334 322 294 252 235 232 236 241 239 236 236 231 235 244 247 243 246 254 260 265 271 277 282 283 285 286 286 283
349 352 351 345 352 1 346 356 7 1 2 7 8 7 1 4 14 27 34 30 16 22 23 24 22 18 17 15 15 16 11 9 10 11 11 6 7 15 15 13 3 358 5 5 354 357 20 20 4 1 7 5 1 3 9 13 10 6 3 360 0 -0 341 231 225 230 235 242 244 235 231 232 232 238 248 251 252 260 265 269 274 279 281 281 283 284 283 281
331 341 337 313 314 306 322 340 350 350 5 11 6 15 5 360 13 23 25 25 24 18 15 7 4 12 15 7 7 7 358 2 4 2 5 3 8 17 16 14 7 357 358 354 352 360 13 21 10 2 4 5 5 9 9 9 13 14 11 9 11 9 19 54 248 250 237 242 255 248 231 225 225 234 252 260 261 266 270 274 279 282 282 280 281 283 283 279
320 332 328 315 312 301 311 330 348 352 8 19 17 21 0 355 15 22 22 26 23 11 15 11 355 1 8 6 12 7 1 12 7 359 6 7 8 5 0 6 8 2 354 353 359 359 350 3 10 4 5 8 10 14 9 4 11 18 15 13 16 18 26 33 3 284 289 248 250 250 233 223 228 241 255 261 270 276 274 277 280 282 283 281 280 281 280 279
314 329 330 330 324 312 312 323 343 354 23 35 16 2 349 352 15 23 21 19 16 6 8 6 350 354 6 10 17 19 9 8 6 3 4 6 7 3 359 3 5 3 1 359 3 0 351 1 9 4 6 14 12 13 11 8 13 18 18 22 26 23 11 354 328 277 294 294 215 235 226 221 231 245 255 262 278 285 282 285 285 285 287 285 283 283 281 281
294 344 340 316 313 348 351 329 336 3 58 25 337 353 6 13 12 10 7 5 8 3 355 355 0 3 10 13 17 25 16 1 2 2 0 6 10 6 5 8 7 6 5 358 358 3 358 360 7 6 11 19 13 10 18 19 16 14 19 24 21 15 6 347 347 302 278 266 231 214 191 208 235 256 268 277 290 293 292 292 290 290 290 287 285 285 286 285
244 252 324 310 320 19 2 350 347 26 93 1 337 350 6 18 12 6 8 4 5 3 352 357 8 1 5 14 12 14 10 359 357 357 358 6 6 1 2 8 12 9 2 355 358 5 356 349 2 8 10 15 13 14 24 25 20 17 17 15 12 18 26 18 4 336 311 285 259 244 198 216 249 271 282 291 302 303 302 299 297 298 294 289 287 287 288 288
258 258 282 348 22 7 349 24 84 118 112 12 346 350 8 23 20 12 11 8 9 3 353 2 11 2 1 4 0 2 1 357 357 358 359 360 356 358 360 359 4 5 1 356 354 360 357 349 360 11 9 10 12 16 21 20 20 22 21 17 19 27 28 21 16 358 347 345 283 282 260 256 270 282 289 299 305 305 303 302 301 302 300 294 291 291 291 291
276 267 222 285 354 358 42 103 113 125 118 335 344 8 31 29 21 13 10 12 16 7 4 12 15 11 9 360 357 2 0 358 360 357 358 359 355 0 4 357 354 359 1 354 353 1 356 347 356 8 11 13 14 16 17 14 15 20 23 24 24 25 14 8 15 8 354 348 316 264 258 278 300 304 302 306 308 308 306 303 301 302 302 298 296 296 295 295
244 247 202 241 329 17 104 107 94 49 317 331 6 37 51 35 26 24 18 14 21 16 15 18 12 9 11 3 3 6 358 357 0 359 3 6 3 5 7 2 357 358 356 349 357 6 357 349 354 354 0 12 16 18 16 11 12 16 20 20 18 16 11 9 20 18 4 355 344 305 262 285 313 313 315 316 313 312 310 307 305 305 305 303 301 300 298 297
239 225 196 236 304 133 132 91 310 308 319 20 48 53 48 32 35 43 36 26 28 27 21 16 13 13 12 7 9 7 357 357 2 2 6 8 8 7 2 2 3 359 354 351 3 9 0 357 354 348 358 16 21 21 18 11 9 11 16 18 14 15 15 11 14 14 5 356 350 338 311 314 319 319 325 326 321 320 317 314 311 310 311 310 307 305 303 299
249 221 200 222 211 169 174 331 305 322 62 83 74 68 55 26 34 47 43 31 29 29 23 17 16 16 15 11 7 4 360 2 4 4 9 12 12 7 1 4 4 356 356 3 11 11 4 359 352 346 356 12 19 23 21 12 4 7 19 18 12 17 18 7 358 355 352 352 351 346 336 327 326 331 334 333 333 331 327 324 319 314 314 314 312 311 310 306
242 224 210 216 191 170 269 321 138 90 90 100 85 72 66 39 30 34 29 22 23 26 24 24 23 19 19 14 6 6 6 6 4 4 12 19 15 9 8 8 3 359 4 8 7 8 5 360 356 348 347 1 18 25 21 14 7 10 18 14 10 13 11 2 350 340 345 354 349 338 336 327 323 333 337 336 341 340 336 334 329 322 318 315 315 313 311 311
244 225 203 197 180 174 299 284 159 128 116 116 95 69 57 42 30 29 32 26 24 26 24 26 24 19 20 14 7 11 11 7 6 7 11 16 14 13 15 14 11 11 11 7 3 4 2 359 357 351 349 357 7 5 4 4 3 5 7 5 6 5 1 358 351 341 349 359 353 345 347 340 323 328 333 333 336 340 338 336 333 330 324 320 318 314 311 311
241 219 197 188 192 212 276 290 179 159 154 140 114 86 56 47 33 26 31 32 28 23 19 20 19 17 18 13 8 15 16 11 8 6 7 16 20 17 17 16 16 15 13 7 1 357 354 353 355 356 358 3 1 349 346 350 350 351 357 359 358 359 357 353 350 352 351 351 355 354 346 339 329 330 335 334 333 334 333 331 331 330 327 325 323 319 316 313
229 216 203 196 209 226 235 223 174 162 168 162 124 93 44 47 44 23 17 26 34 26 17 17 17 14 16 14 12 16 19 17 12 7 7 16 21 15 11 15 18 16 15 8 360 358 354 350 354 358 352 351 351 345 344 347 343 340 347 351 350 352 353 348 349 356 346 338 351 352 332 328 333 333 333 331 330 329 327 326 326 324 323 324 322 320 319 317
224 227 212 202 212 216 205 203 202 181 177 182 207 236 2 30 41 22 4 14 34 29 19 16 14 12 15 18 16 12 13 15 13 11 9 8 8 5 7 16 17 16 14 7 3 359 350 350 0 357 343 339 344 345 346 344 338 338 342 343 342 343 345 345 344 346 339 332 341 343 330 328 331 329 328 329 328 326 323 322 323 321 320 320 318 318 318 317
224 237 221 210 216 213 205 207 205 196 193 220 269 253 239 308 0 4 355 12 23 13 9 10 10 13 14 14 11 5 5 9 10 9 6 3 4 5 7 9 9 12 11 6 4 358 350 355 360 349 339 337 336 343 350 344 335 336 335 333 337 337 337 337 334 335 333 324 325 330 327 326 324 321 324 325 323 323 320 318 319 318 318 317 316 317 318 317
229 236 221 215 223 220 208 211 213 211 216 249 267 243 242 272 306 340 347 354 353 350 356 356 0 9 8 5 4 3 3 4 5 5 4 4 6 6 6 5 7 13 11 5 5 4 356 356 355 346 338 333 329 340 349 341 332 331 329 329 333 332 331 331 329 329 324 314 315 321 319 320 320 318 320 322 322 321 320 320 322 319 317 316 315 316 317 317
233 238 226 224 230 227 218 224 229 224 227 248 256 243 246 261 278 310 328 334 334 338 344 345 354 4 360 355 357 2 4 3 2 4 3 3 4 4 5 4 0 1 3 3 5 4 356 351 351 345 337 336 340 343 341 338 333 328 325 329 331 330 330 329 329 331 323 316 318 319 315 316 318 316 317 320 321 319 317 321 323 319 314 314 314 316 317 316
237 239 233 232 234 228 226 229 231 234 240 246 246 243 247 254 267 281 298 320 326 323 327 335 347 353 347 344 349 358 2 358 356 1 1 358 358 359 360 359 354 351 354 358 358 355 351 347 344 340 337 343 347 340 340 342 335 325 323 326 326 327 329 328 328 327 321 318 318 315 314 316 316 314 316 318 319 317 316 318 319 317 314 313 313 315 316 315
239 235 232 233 234 232 232 231 230 237 248 250 241 240 250 255 258 265 282 299 307 310 318 326 329 330 330 334 342 350 351 347 346 351 351 346 344 345 347 353 355 353 353 354 352 350 350 346 344 344 344 346 346 341 341 338 331 330 338 338 330 326 325 321 320 319 318 317 314 311 313 315 313 313 315 317 318 317 316 316 317 316 313 311 313 315 315 315